GFSWCAN_925_temp_132.txt.gz
Temp
7 7 7 6 6 6 6 6 6 6 7 8 9 9 9 9 9 9 10 12 11 11 11 13 15 13 14 14 14 16 17 18 19 20 21 22 22 23 23 23 23 23 20 20 18 21 23 24 24 24 20 19 18 17
7 7 7 6 6 6 6 6 6 6 6 7 8 9 9 9 9 9 9 11 11 10 12 13 13 14 14 14 14 15 16 16 17 17 17 18 22 20 20 22 23 23 21 21 21 20 20 22 24 20 18 18 17 17
7 7 7 7 7 7 7 7 7 7 7 7 8 9 9 9 9 9 9 10 10 9 10 11 12 17 16 14 16 14 15 17 18 17 16 17 20 19 21 22 23 23 21 20 21 22 21 18 18 18 18 17 17 16
7 7 7 7 7 7 7 7 7 7 7 7 8 9 9 9 9 9 9 10 10 10 11 10 15 15 16 16 15 16 17 17 17 16 17 16 18 20 21 20 21 20 21 20 21 19 18 18 18 18 18 17 17 17
7 7 7 7 7 7 7 7 7 7 7 7 8 9 9 9 9 9 9 10 10 10 11 10 12 15 18 16 16 17 17 16 16 17 17 18 18 20 18 19 20 19 21 21 20 20 18 17 17 17 17 18 18 17
6 6 6 6 6 7 7 7 7 8 7 7 8 8 9 9 9 9 9 10 10 9 10 11 11 12 16 19 17 17 18 15 15 16 16 18 19 19 19 19 21 20 21 20 22 21 19 18 17 17 17 16 17 17
6 6 6 6 6 7 7 7 8 8 8 8 8 8 9 9 9 9 10 10 10 10 10 11 10 14 18 19 18 17 18 17 13 16 16 19 19 17 18 19 21 23 22 23 20 20 18 18 19 18 18 18 18 18
6 6 6 6 6 6 6 7 8 8 8 8 8 8 8 8 9 9 12 12 10 10 10 11 13 15 18 18 17 17 17 17 16 15 17 18 18 16 18 19 21 21 22 23 21 21 21 19 17 18 19 18 18 18
6 6 6 6 6 6 6 7 7 7 8 8 8 8 8 8 9 11 11 12 10 10 11 12 14 14 15 16 16 18 17 17 17 17 18 17 16 17 18 20 21 22 23 20 22 22 20 20 18 19 19 18 18 18
6 6 6 6 5 5 6 7 7 8 8 8 8 8 9 10 11 10 10 10 10 10 10 11 11 12 15 16 14 15 15 17 17 18 17 17 16 18 20 19 19 20 20 21 23 20 20 20 20 19 20 20 19 19
7 6 6 6 5 6 7 7 7 7 8 8 9 10 10 10 10 10 11 11 11 11 10 9 11 12 13 14 14 14 14 14 17 17 17 16 18 20 20 21 19 19 19 21 22 21 23 22 21 20 21 21 20 19
7 7 6 6 6 7 7 8 7 7 8 8 8 9 10 10 10 11 13 12 12 14 13 13 13 13 13 13 14 14 15 15 15 15 17 17 17 20 20 20 20 19 21 22 22 23 22 21 21 21 21 21 21 20
7 7 6 6 7 7 7 7 7 8 8 8 9 9 10 11 11 13 14 14 14 13 14 14 15 13 13 12 13 13 15 15 15 15 17 16 17 19 18 20 21 20 21 21 22 24 24 23 23 21 21 21 21 19
7 7 7 7 7 7 7 7 7 7 8 8 10 9 11 12 12 13 13 13 13 13 13 13 14 14 13 15 13 15 15 15 15 16 17 16 16 15 16 18 19 20 20 21 21 21 22 22 20 23 22 20 20 19
6 7 7 7 7 7 7 7 7 7 8 9 10 10 11 12 13 14 12 12 13 12 12 13 13 13 14 15 14 15 16 16 16 18 16 16 16 15 15 17 18 19 20 20 20 20 20 22 20 21 22 21 20 20
6 6 7 7 7 7 7 7 7 8 8 9 9 10 11 11 12 14 14 13 13 12 12 12 14 15 16 15 16 16 18 18 18 17 16 15 16 15 15 15 15 17 20 19 19 20 21 20 20 20 21 20 20 19
6 6 7 7 7 7 7 7 7 8 8 10 10 10 11 11 11 12 13 13 12 12 14 14 16 17 14 15 17 18 17 15 15 16 16 16 16 15 14 17 17 15 16 18 20 21 20 24 22 19 19 20 20 20
6 7 7 7 7 7 7 7 8 9 9 10 10 10 11 12 13 13 13 12 12 13 13 15 14 15 15 17 16 15 16 14 14 14 15 16 16 14 15 17 17 17 17 19 19 20 20 20 17 18 21 20 20 19
7 7 7 7 7 7 8 8 8 9 11 10 11 12 11 14 14 14 14 12 12 13 13 14 14 14 14 14 15 14 14 14 14 14 14 15 16 15 16 17 17 17 18 18 19 18 20 21 21 20 20 20 20 19
6 7 7 7 7 7 8 9 9 8 10 11 12 13 13 13 14 15 15 12 13 13 13 13 13 15 16 15 13 14 14 14 13 14 15 14 15 15 15 16 16 17 17 18 19 20 20 20 22 21 21 20 20 19
6 7 7 7 7 7 8 9 10 10 11 11 12 13 13 13 14 14 13 12 12 12 13 13 14 14 15 15 16 16 15 14 14 14 14 14 14 14 14 15 16 16 15 15 14 17 17 16 16 17 18 20 21 20
7 7 7 7 8 8 8 9 9 11 11 12 12 13 13 13 13 13 12 13 13 13 13 14 16 15 16 16 15 17 16 16 14 13 14 15 14 13 13 14 14 13 13 14 14 15 15 15 17 17 16 15 15 15
7 7 8 8 8 8 8 11 11 12 12 13 13 14 14 14 13 13 13 13 13 14 14 14 15 17 15 17 18 16 16 15 13 13 14 14 15 15 15 14 14 13 13 14 14 15 15 16 16 17 16 17 15 14
7 8 8 9 9 8 10 12 13 13 13 13 14 15 14 13 14 14 14 14 14 13 13 15 15 15 15 15 14 14 14 15 14 14 15 14 13 14 15 15 14 15 15 16 16 15 15 15 16 16 16 16 16 15
7 8 8 7 10 10 12 14 14 14 15 15 15 14 13 13 14 15 14 14 13 13 14 13 14 14 14 13 13 13 14 14 13 13 15 16 14 14 14 15 15 14 15 16 16 15 15 15 14 15 16 16 16 14
8 9 8 11 12 12 13 14 14 14 14 16 15 14 13 14 15 14 14 14 13 14 14 14 14 14 13 13 13 12 13 15 15 13 15 15 15 14 12 13 12 13 14 14 14 14 15 15 16 15 14 14 14 14
8 10 10 10 10 12 12 13 14 13 14 14 14 14 15 13 14 15 14 13 14 15 16 17 17 14 12 12 14 14 16 16 15 16 18 17 17 16 14 14 14 16 15 15 15 15 15 15 15 15 14 14 14 15
10 11 11 12 11 12 13 14 14 14 14 13 14 15 15 15 16 15 15 17 18 18 18 17 17 17 17 17 17 17 18 18 19 17 17 18 18 18 17 17 17 17 17 16 16 15 15 15 15 15 14 13 13 14
10 12 12 12 13 13 14 13 13 13 13 13 14 16 16 15 15 16 18 19 19 17 15 15 16 17 17 16 17 19 19 18 17 16 16 15 15 18 18 18 17 17 17 17 17 17 17 16 16 16 15 15 14 14
12 11 11 12 13 12 12 12 12 12 12 12 15 15 15 16 18 19 19 19 17 16 17 17 17 17 16 17 17 17 18 18 18 17 15 16 16 18 19 19 19 18 18 18 17 17 17 17 16 16 16 15 15 14
11 11 11 12 13 14 13 13 13 13 14 16 16 16 17 17 19 20 20 19 19 19 18 17 18 19 19 18 16 14 14 17 17 18 18 18 18 18 18 18 18 19 19 18 18 17 17 17 17 16 16 16 16 16
11 12 13 15 15 15 15 15 15 14 14 15 15 16 16 15 16 15 20 20 20 18 19 20 19 18 19 19 19 18 17 17 17 17 17 17 17 17 17 17 17 17 16 15 16 15 15 16 16 16 16 16 16 15
15 15 16 16 15 15 15 14 14 14 15 15 16 17 17 16 17 16 20 20 21 21 21 21 20 20 19 19 19 18 18 17 16 16 16 16 16 16 16 16 15 15 15 13 13 13 13 13 13 13 13 14 14 14

GFSWCAN_925_temp_138.txt.gz
Temp
6 7 7 7 7 7 7 6 6 6 6 6 6 6 7 8 8 8 9 9 9 10 12 12 12 11 11 11 11 12 14 15 14 15 16 18 18 20 20 21 21 20 19 19 17 19 23 20 22 22 20 19 20 19
6 6 7 7 7 7 7 7 7 7 7 7 7 7 7 8 8 8 8 10 9 9 9 12 12 12 12 12 11 11 12 14 14 14 15 15 17 17 18 20 21 22 20 19 20 20 19 19 22 20 18 20 19 18
6 6 7 7 7 7 7 7 7 7 7 7 7 7 7 8 8 8 8 9 9 9 10 8 9 13 13 12 13 12 10 14 14 13 13 15 17 16 18 19 21 21 18 18 20 21 20 21 20 19 18 19 17 16
6 6 6 7 7 7 7 7 7 7 7 7 7 7 8 8 8 8 8 9 9 9 10 9 13 12 14 14 13 12 13 13 14 13 13 14 16 16 17 18 19 19 19 18 18 19 19 20 19 18 16 16 16 15
6 6 6 6 7 7 7 7 7 7 7 7 8 8 8 9 8 9 9 10 10 9 10 10 11 12 12 12 13 12 12 11 12 13 13 14 15 16 17 17 19 18 19 20 20 19 20 21 18 17 16 16 15 15
6 6 6 6 7 7 7 7 7 7 7 7 8 8 8 8 8 9 9 9 9 9 9 11 11 11 12 11 11 11 11 11 12 12 14 15 16 16 16 18 20 19 19 18 22 19 18 17 16 17 16 15 15 15
6 6 6 6 6 6 6 7 7 7 7 8 8 8 8 8 8 8 9 9 9 9 10 11 11 12 13 13 13 11 12 12 12 13 14 14 16 15 15 17 21 21 20 19 18 18 19 18 17 16 16 16 16 16
6 6 6 6 6 6 6 6 6 7 7 7 8 8 8 8 8 8 11 11 10 9 10 10 12 11 14 14 12 13 12 12 12 13 13 14 15 14 15 17 19 20 20 19 18 19 20 17 16 16 16 16 16 15
6 6 6 6 6 6 6 6 6 7 7 7 8 8 8 7 8 10 10 10 10 10 11 11 12 12 11 12 13 14 14 12 13 13 13 14 13 14 16 18 19 20 20 19 18 18 18 18 16 16 16 16 16 15
6 6 7 6 6 6 6 6 7 7 7 7 7 7 9 9 9 9 10 10 9 10 10 10 10 11 10 12 13 13 13 14 14 14 13 13 14 16 18 17 16 17 20 18 19 17 17 17 17 16 17 16 16 15
6 6 6 6 6 6 6 6 7 7 7 7 7 8 10 10 9 10 11 10 11 11 10 11 10 10 10 12 13 12 13 13 15 14 15 14 14 16 18 18 17 16 17 18 18 18 19 19 17 16 16 16 16 15
6 6 6 7 7 6 6 7 7 7 7 8 8 8 8 9 10 11 11 11 11 12 12 11 12 9 9 10 12 12 15 13 15 14 15 15 15 16 17 18 18 17 17 18 19 18 19 18 18 18 17 16 16 16
6 7 7 7 7 6 7 7 7 7 8 8 8 9 10 9 10 11 12 13 12 13 13 13 13 11 10 11 12 12 14 15 13 14 15 15 16 16 16 17 18 18 18 18 19 19 19 18 19 18 17 17 17 16
6 7 6 6 6 7 7 7 7 7 7 8 9 8 10 11 11 13 12 13 13 12 12 12 12 13 13 13 13 15 14 14 16 15 16 16 13 14 13 15 15 17 17 18 18 19 18 17 18 18 19 18 17 16
6 6 6 7 7 7 7 7 7 7 7 8 9 9 10 10 10 12 12 12 12 12 12 11 12 12 13 14 13 13 15 15 15 16 15 13 13 12 14 14 14 14 15 16 17 17 18 18 17 18 19 19 19 17
6 6 6 7 7 7 7 7 7 7 7 8 8 10 9 9 10 11 12 12 12 12 11 11 13 13 13 12 14 14 16 16 16 14 14 13 14 13 13 13 13 13 14 15 16 17 18 18 17 19 20 19 18 18
6 6 7 7 7 7 7 7 8 7 8 8 8 7 9 9 9 9 9 11 11 11 13 13 14 14 11 13 14 14 15 15 15 14 13 13 13 14 14 13 14 14 14 15 16 17 17 18 19 18 16 18 18 18
6 6 7 7 7 7 7 7 7 8 9 9 8 8 8 9 9 9 10 11 11 12 11 14 12 14 14 15 14 13 13 13 13 13 13 13 13 13 13 14 14 15 14 14 15 16 16 16 15 15 17 19 17 17
6 6 6 7 7 7 7 8 7 8 9 8 7 7 8 9 10 11 12 12 11 12 12 12 13 12 12 11 12 13 13 13 13 13 12 12 13 13 14 14 14 14 14 15 15 16 17 17 18 18 17 16 16 16
7 7 7 7 7 7 8 8 8 7 9 8 7 8 9 9 10 10 11 11 10 11 12 13 13 11 12 13 12 12 12 12 12 12 13 13 13 13 13 13 13 14 14 15 16 16 16 16 18 18 19 18 16 16
6 7 7 7 7 7 8 8 9 8 9 9 9 9 10 10 10 11 11 9 10 11 11 11 11 11 11 13 14 13 12 12 12 12 13 13 13 12 12 13 13 13 13 13 14 14 14 14 17 17 18 18 18 18
7 7 7 7 7 8 7 7 7 8 8 9 9 9 10 11 11 11 9 11 11 11 11 11 11 12 12 12 12 14 15 14 13 13 12 12 13 12 12 12 12 12 12 12 12 12 13 15 15 15 16 17 17 17
7 7 7 7 8 7 8 7 8 9 10 10 10 11 11 11 11 10 11 11 11 11 11 11 12 13 12 15 14 14 14 13 12 12 12 12 12 13 13 13 12 12 12 13 14 13 13 14 14 14 14 15 15 14
7 7 8 8 8 8 8 8 9 10 10 11 11 13 14 13 12 12 12 12 11 11 12 13 12 13 13 13 13 13 13 13 12 12 12 12 12 12 13 13 13 13 13 13 14 14 14 13 13 13 13 13 14 14
7 7 6 6 8 9 9 10 11 11 12 12 13 13 12 12 13 14 13 12 12 12 12 12 12 12 13 13 12 12 12 13 13 12 12 13 13 14 13 13 14 13 13 13 13 13 13 14 13 13 13 13 14 14
7 8 7 10 10 9 11 12 13 12 12 13 13 13 12 13 13 13 13 13 13 12 13 13 13 13 13 12 12 12 13 13 14 12 13 13 14 13 12 12 12 13 13 13 13 13 13 14 13 13 13 13 13 14
8 9 8 7 8 9 10 11 11 12 12 13 12 12 12 13 13 14 13 12 12 13 13 14 13 12 12 12 13 14 14 14 14 14 15 15 15 14 14 13 12 13 14 14 14 14 14 14 14 13 13 13 13 13
8 8 9 10 9 9 11 12 12 12 12 12 12 13 13 13 14 13 12 14 13 14 14 14 14 14 14 14 14 14 15 15 15 15 16 15 15 15 15 15 16 16 16 15 15 14 14 14 14 14 14 13 13 14
8 9 10 10 11 11 11 11 12 11 11 12 13 13 14 13 14 13 14 14 13 14 14 14 16 16 15 14 14 15 16 16 16 14 13 12 12 16 15 15 16 16 17 17 17 17 17 16 15 15 14 14 14 14
9 9 10 11 11 12 12 11 11 11 11 11 12 13 14 14 14 14 14 14 14 14 16 16 15 16 13 14 13 14 16 17 17 15 13 12 12 13 14 15 14 15 15 16 16 15 15 15 15 15 14 14 14 13
10 10 10 11 11 12 11 11 11 11 11 12 13 13 14 13 15 16 15 15 16 16 16 16 15 15 15 14 14 13 12 14 14 14 14 14 14 14 13 13 14 14 14 14 13 13 13 13 13 13 13 12 12 12
10 10 11 11 12 12 12 12 12 13 13 14 14 14 13 14 14 13 16 16 17 16 16 16 16 15 16 16 16 16 15 15 15 15 15 15 14 14 14 14 14 13 13 12 12 11 10 9 9 8 8 8 8 8
11 11 11 12 13 14 13 13 14 14 14 14 14 14 14 14 16 15 17 17 19 19 17 17 17 16 16 16 16 15 15 14 14 14 14 14 13 13 12 12 11 11 11 10 9 8 8 8 8 7 7 7 7 8

GFSWCAN_925_temp_141.txt.gz
Temp
6 6 6 7 7 7 7 7 7 7 7 7 7 7 6 7 8 8 9 9 9 10 13 14 14 13 13 14 13 16 17 17 18 18 19 21 22 24 24 24 24 25 25 24 22 24 26 25 25 27 28 24 25 25
6 6 6 7 7 7 7 7 7 7 7 7 7 7 7 7 8 8 8 9 9 9 12 11 12 12 13 14 14 14 15 15 17 17 18 17 20 21 25 24 22 24 27 25 25 27 24 25 27 24 25 25 24 24
6 6 6 6 7 7 7 7 7 7 7 7 7 7 8 8 8 8 9 10 9 9 12 11 13 13 12 13 14 13 15 15 16 15 16 17 17 20 22 23 23 23 20 24 24 24 23 24 23 24 24 24 22 23
6 6 6 6 6 7 7 7 7 7 7 7 7 8 8 8 8 8 8 10 9 9 10 14 12 13 14 13 12 13 15 14 15 14 17 15 17 19 21 21 21 23 21 22 23 21 22 23 23 23 21 21 21 20
6 6 6 6 6 7 7 7 7 7 7 7 7 7 8 8 8 9 9 9 9 9 11 13 14 14 12 12 13 13 13 13 13 14 14 17 18 18 20 19 21 22 22 23 27 24 26 26 22 21 21 21 21 20
6 6 6 6 6 6 7 7 7 7 7 7 7 7 8 8 9 9 9 9 9 8 9 11 14 13 13 12 13 13 13 12 13 14 16 17 19 18 19 22 22 21 20 21 22 23 22 22 21 21 21 21 20 20
6 6 6 6 6 6 6 6 6 6 7 7 7 8 8 8 8 9 10 9 9 9 10 12 13 14 14 14 13 13 13 13 13 13 13 13 16 18 19 20 23 22 21 20 20 21 20 21 21 21 21 20 19 20
6 6 6 6 6 6 6 6 6 6 7 7 7 8 8 8 8 8 10 10 10 9 10 11 13 14 14 15 14 14 13 12 12 13 13 13 15 18 19 20 20 20 21 21 20 21 22 22 21 20 20 20 20 20
6 6 6 6 6 6 6 6 6 6 7 7 7 8 7 7 8 9 10 10 9 10 11 12 13 13 12 14 15 15 15 14 13 13 13 13 15 16 19 19 19 21 22 22 22 22 21 21 20 20 20 20 20 20
6 6 7 7 7 6 6 6 6 7 7 7 7 7 10 10 10 9 10 10 10 10 9 11 13 13 14 13 14 13 14 14 14 14 15 15 16 17 20 20 19 20 20 21 21 21 20 20 21 20 20 21 21 20
6 6 6 6 7 7 7 6 6 7 7 7 8 9 9 10 9 10 11 11 12 12 12 12 12 13 13 13 14 14 15 15 15 16 16 17 16 18 19 19 19 19 19 20 21 21 22 22 21 20 20 20 20 20
6 6 6 7 7 7 6 6 7 7 7 7 8 8 8 9 11 11 12 12 12 14 12 12 12 11 13 12 14 14 16 15 17 14 15 17 19 18 18 18 19 19 20 21 21 20 20 22 21 21 21 21 21 20
6 6 7 7 7 7 6 7 7 7 7 8 8 9 10 11 10 12 13 13 13 12 11 11 13 13 12 12 13 15 16 17 15 16 17 18 17 16 16 17 20 20 20 20 21 21 21 21 20 20 21 21 21 20
6 6 6 6 6 7 7 7 7 7 7 8 9 8 10 11 13 13 14 13 13 13 13 13 13 14 14 14 15 16 17 16 16 17 18 18 17 16 15 16 16 19 19 20 20 21 21 20 20 20 21 20 20 20
6 6 6 7 7 7 7 7 7 7 7 8 9 9 11 13 13 13 13 13 13 12 12 12 13 13 15 15 15 16 16 17 18 16 15 15 15 16 16 16 17 18 18 19 19 20 21 21 20 20 20 20 20 20
6 6 6 6 7 7 7 7 7 7 7 8 8 10 12 11 13 13 13 12 11 11 11 12 13 14 14 15 16 17 17 16 16 15 15 14 14 15 15 16 16 17 18 19 20 20 20 21 20 21 20 20 20 20
6 6 7 7 7 7 7 7 8 8 9 9 10 11 11 11 11 12 12 11 11 12 13 13 14 16 15 16 17 17 16 15 15 16 14 13 14 14 15 16 17 17 17 18 18 19 20 20 20 20 20 20 21 20
6 6 7 7 7 7 7 7 8 9 10 11 10 11 11 11 12 12 11 12 11 12 12 14 13 15 16 17 17 16 16 14 15 15 15 16 13 14 14 15 16 16 16 16 17 18 18 18 18 20 20 20 19 19
6 6 7 7 7 7 8 8 7 9 10 11 11 11 11 12 12 12 13 13 12 12 12 12 14 15 16 16 17 15 15 16 16 16 15 16 15 14 15 14 15 15 16 16 16 17 18 19 20 20 20 19 21 21
6 7 7 7 7 7 8 9 8 8 9 11 10 11 12 13 13 13 14 12 12 13 14 14 16 16 15 15 14 16 17 16 15 17 18 18 16 15 15 15 16 15 16 16 17 16 19 18 18 19 19 19 20 20
6 7 7 7 7 7 8 9 9 9 10 9 12 11 12 13 13 14 13 12 13 15 16 17 17 17 17 16 16 15 14 15 15 16 16 16 16 15 15 16 16 16 16 16 17 18 17 17 17 16 15 16 17 18
6 7 7 7 7 8 8 9 10 9 10 12 12 12 13 13 13 13 12 13 15 16 16 17 17 18 17 16 16 16 15 15 14 14 12 12 16 16 16 16 16 17 17 16 15 15 15 14 14 15 15 15 15 15
7 7 7 7 8 7 9 9 9 10 11 12 12 13 13 13 13 12 14 15 16 15 15 15 15 15 15 15 15 14 14 14 15 14 14 14 15 15 15 15 14 16 17 16 14 14 14 13 13 15 15 15 16 15
7 7 8 8 9 9 10 10 10 11 12 12 13 14 14 14 13 13 15 15 15 14 15 15 14 15 15 15 15 14 13 12 13 14 13 14 15 15 15 15 15 14 13 13 14 14 15 15 14 15 15 16 16 16
7 7 7 7 9 9 10 11 12 12 13 13 13 15 14 13 13 15 16 15 15 15 14 14 14 14 14 15 14 13 12 13 14 15 13 14 14 15 15 14 15 13 13 14 15 15 15 15 15 15 15 16 16 16
7 9 7 10 10 10 12 12 12 12 13 13 13 12 12 12 13 14 15 15 14 14 14 14 14 15 14 14 14 14 13 13 14 14 13 13 14 15 16 16 16 15 13 13 14 14 14 15 16 16 16 15 14 16
8 10 10 10 10 10 11 12 12 12 12 12 12 12 12 13 13 14 14 14 13 13 13 12 13 15 14 13 13 13 13 14 14 14 13 13 13 13 14 16 16 14 13 14 14 15 15 14 13 13 13 13 13 13
9 10 10 11 10 10 11 12 12 12 12 11 11 13 13 13 13 13 13 12 13 13 13 13 14 13 13 13 13 13 13 14 15 15 15 15 15 15 14 14 14 15 15 15 15 15 15 14 15 14 14 13 13 13
9 10 10 10 10 11 11 11 11 11 10 10 12 13 13 12 12 12 12 13 14 14 14 15 15 14 14 13 14 15 16 16 17 18 17 17 16 15 13 14 14 14 15 15 15 15 14 15 15 15 14 14 13 14
10 9 10 11 11 11 12 11 11 11 11 12 12 13 15 14 12 12 13 14 15 14 15 16 15 17 17 17 16 14 14 15 16 17 17 16 14 13 13 13 14 14 14 15 15 15 14 14 14 15 15 14 13 14
11 10 11 11 11 11 11 11 11 11 11 12 14 15 14 14 14 14 14 14 15 16 16 17 16 17 17 17 17 17 16 13 13 13 13 13 13 13 12 12 13 13 13 13 13 13 13 13 13 12 12 12 11 11
11 11 11 11 11 12 12 13 14 14 15 16 14 15 17 17 14 14 15 15 17 18 16 17 17 15 14 14 14 14 14 13 13 13 13 13 12 11 11 11 12 12 12 11 11 11 11 11 11 11 11 11 10 10
10 10 11 11 12 14 13 14 16 16 16 16 16 16 17 17 17 17 15 16 17 18 17 15 14 13 14 13 12 13 13 12 12 13 13 12 11 11 11 10 10 10 10 10 10 10 10 9 9 9 9 9 9 9

GFSWCAN_925_temp_144.txt.gz
Temp
6 6 6 7 7 7 7 8 7 7 7 7 7 7 7 7 7 8 11 10 10 13 16 16 17 17 18 17 18 20 20 21 21 21 22 23 25 27 27 29 26 27 27 28 29 29 29 32 30 30 32 31 31 31
6 6 6 6 7 7 7 7 7 7 7 7 7 7 8 8 7 8 11 11 9 10 15 14 15 15 16 17 17 16 19 19 19 19 21 21 22 26 27 27 26 26 28 29 29 30 28 31 32 32 32 31 30 30
6 6 6 6 6 7 7 8 7 7 7 7 7 7 8 8 8 8 9 10 10 13 15 17 17 17 15 15 15 17 19 19 19 19 19 20 20 23 25 27 27 26 24 26 27 27 29 30 29 30 30 31 29 30
6 6 6 6 6 6 7 7 7 7 7 7 7 7 7 8 8 8 8 9 10 11 12 18 16 16 17 17 16 16 18 18 17 17 14 17 18 21 23 24 26 27 24 26 27 24 26 29 29 29 28 28 27 27
6 6 6 6 6 6 7 7 7 7 7 7 7 7 7 8 8 8 8 9 9 11 14 16 16 18 17 16 16 16 17 18 15 15 15 15 16 17 22 24 26 27 27 27 29 25 27 28 28 27 27 26 26 25
6 6 6 6 6 6 6 7 7 7 7 7 7 7 7 8 8 9 13 10 11 9 9 13 19 18 17 16 16 17 17 18 15 17 19 20 19 15 17 21 27 26 25 25 26 25 27 29 28 26 27 26 25 25
6 6 6 6 6 6 6 7 6 7 7 7 7 7 7 8 8 10 12 9 8 8 10 13 17 15 16 17 17 17 17 16 16 16 17 19 20 19 17 19 26 25 24 24 24 24 25 26 25 26 26 25 23 25
6 6 6 7 7 7 6 6 6 6 7 7 7 7 8 8 8 10 12 10 9 8 10 13 17 15 16 16 15 15 15 14 14 15 14 15 15 16 17 23 24 25 24 24 24 25 26 26 26 25 25 24 24 24
6 7 7 7 7 7 7 6 6 6 7 7 7 7 8 9 10 12 10 10 10 11 13 15 16 14 15 14 16 16 16 14 15 14 15 14 14 14 19 22 23 24 25 23 24 25 25 25 25 25 25 24 25 24
6 6 7 7 7 7 7 7 6 7 7 7 7 10 12 12 10 9 9 10 10 12 12 15 17 16 17 13 13 14 14 15 16 16 15 14 16 19 20 22 23 23 23 23 23 25 25 26 25 25 25 25 25 24
6 6 6 7 7 7 7 7 7 7 8 8 11 12 10 10 10 10 13 12 13 13 14 15 15 15 17 16 16 13 14 14 17 18 16 17 18 20 21 22 22 22 23 23 24 25 25 26 26 25 25 25 25 24
6 6 7 7 7 7 7 7 7 7 8 8 8 8 9 11 11 12 15 15 15 15 14 12 13 12 14 16 15 16 17 18 18 18 15 18 19 19 20 20 21 22 23 24 24 23 24 26 26 25 25 25 24 23
6 6 6 6 7 7 7 7 7 7 7 8 8 11 12 13 13 14 15 16 14 13 12 14 13 14 16 15 15 17 18 19 19 18 19 19 17 18 19 19 20 22 23 24 24 24 24 24 25 25 25 24 24 23
6 6 6 7 7 7 7 7 7 7 7 9 11 10 12 13 16 16 17 15 14 15 14 14 14 15 16 15 17 19 20 20 20 19 18 17 15 18 19 20 20 21 23 24 24 24 23 23 23 23 24 23 23 23
6 6 7 7 7 7 7 7 7 8 7 10 10 12 13 16 16 17 14 15 15 14 12 13 15 15 16 17 18 19 19 19 19 16 15 16 17 17 18 19 20 20 22 23 23 23 22 23 23 21 22 23 23 23
6 7 7 7 7 7 7 7 7 8 9 10 10 13 15 15 16 16 16 15 12 11 11 11 13 14 15 18 18 19 20 17 18 16 15 15 14 15 16 18 19 20 20 22 23 22 23 23 23 23 23 23 23 23
6 6 7 7 7 7 7 7 7 9 10 11 13 15 15 16 15 16 16 15 11 12 13 14 14 17 18 18 19 20 18 16 16 15 16 15 14 16 16 15 17 20 20 21 22 22 21 23 23 23 23 22 23 23
6 6 7 7 7 7 7 7 9 10 12 14 14 16 16 16 16 16 16 15 14 12 12 13 15 17 18 19 18 18 18 18 17 18 18 17 17 14 14 15 16 17 18 19 20 21 22 22 23 23 22 22 22 23
6 6 6 7 7 7 10 9 10 10 13 15 16 16 16 16 17 16 16 16 15 12 13 14 16 18 20 20 20 20 19 19 20 20 21 19 18 18 18 18 18 18 19 19 19 21 22 21 23 23 23 23 23 24
7 7 7 7 7 7 8 10 10 11 13 14 15 15 15 16 17 17 17 17 16 15 15 16 18 20 21 19 20 20 20 20 20 21 19 19 18 20 19 18 19 19 20 20 21 20 21 23 23 22 23 23 24 25
6 7 7 7 7 9 8 10 10 11 12 12 14 14 15 17 16 17 17 18 16 18 19 20 20 21 21 21 20 20 20 17 17 20 19 18 19 20 20 20 19 20 21 21 22 22 21 21 21 21 21 21 22 22
7 7 7 7 9 8 10 12 12 13 13 15 16 16 16 16 17 17 17 16 18 20 20 20 21 21 20 20 20 19 19 17 18 18 15 15 18 19 19 20 21 21 21 21 20 21 20 20 18 20 20 20 19 19
7 7 7 7 11 9 10 12 11 13 13 15 15 14 15 16 16 16 17 19 20 20 20 20 19 18 18 19 18 18 17 17 17 18 18 19 19 19 20 19 19 20 20 20 18 19 19 16 18 18 19 19 20 19
7 7 8 9 10 10 13 13 13 13 14 14 15 16 17 16 16 16 17 19 20 19 18 18 18 18 18 18 18 18 15 14 14 17 17 19 19 18 18 19 19 18 17 17 19 19 19 19 17 19 19 20 20 21
7 8 9 7 9 11 12 13 14 13 14 14 15 16 16 16 16 17 18 18 17 17 17 18 19 18 17 17 17 15 15 16 16 17 16 17 18 18 17 18 18 17 17 16 17 18 19 19 19 19 18 19 19 20
8 10 8 12 12 13 13 12 12 12 14 14 15 15 13 13 13 17 17 17 17 16 17 17 17 17 16 17 17 15 13 14 14 15 14 17 18 18 19 18 18 17 16 17 17 16 15 17 18 18 18 18 17 19
9 11 12 14 13 12 13 14 14 14 14 13 13 12 12 13 14 16 16 15 15 16 15 14 17 18 16 13 13 14 16 17 17 17 17 17 18 18 18 19 19 16 15 15 14 15 15 13 13 13 13 14 15 14
11 12 11 12 12 13 12 11 12 12 12 11 11 12 13 13 13 14 13 12 13 13 13 14 15 14 13 13 14 15 16 17 17 18 19 19 18 18 18 18 16 16 16 16 17 19 18 18 18 17 16 17 17 17
11 12 11 12 12 10 11 11 12 12 11 10 11 11 12 12 11 13 14 15 15 15 16 15 16 14 13 14 15 16 18 19 20 19 19 19 19 18 17 18 18 18 18 17 16 15 15 16 17 18 17 17 17 17
11 12 12 13 13 13 13 11 10 10 10 10 10 12 12 12 12 12 14 16 19 19 19 19 19 18 18 17 15 16 18 18 18 18 18 18 18 17 17 17 17 16 16 17 17 15 15 16 16 17 17 16 15 16
12 10 10 11 11 11 11 11 11 11 11 12 13 15 14 14 15 16 17 18 19 20 20 20 20 20 20 20 19 19 18 17 16 16 16 16 16 15 15 15 16 16 16 16 16 16 16 15 15 14 14 14 13 13
11 11 11 10 11 12 11 12 13 14 14 15 17 19 19 18 18 19 17 19 20 20 19 20 19 19 18 17 17 16 15 15 14 14 14 14 14 14 14 14 14 14 14 14 14 14 14 14 13 13 14 13 13 13
10 10 11 10 11 14 15 16 18 18 18 16 16 17 20 20 19 19 17 18 20 20 19 18 18 17 16 16 14 13 12 11 11 11 11 11 11 12 13 13 13 13 13 13 13 12 12 12 12 11 11 11 11 11

GFSWCAN_925_temp_147.txt.gz
Temp
7 7 7 7 7 7 7 7 8 8 8 8 8 8 8 8 8 9 12 12 14 16 19 19 20 19 21 21 21 24 23 24 24 24 25 24 25 27 27 28 28 28 27 28 26 27 29 33 33 32 33 34 34 34
7 7 6 6 6 7 7 7 8 8 8 8 8 8 8 8 8 7 11 12 12 13 17 16 17 18 18 20 21 21 22 21 21 20 20 21 21 25 26 26 26 27 30 30 29 31 31 29 33 34 34 33 33 33
6 6 6 6 6 6 7 7 7 8 8 8 8 8 8 8 8 8 9 11 12 14 17 19 20 20 19 18 19 20 22 22 22 20 20 19 21 23 22 24 26 26 30 31 28 30 30 32 33 34 34 33 33 33
6 6 6 6 6 6 7 7 7 7 7 8 7 7 8 8 8 8 10 11 10 13 15 21 20 19 19 20 19 19 20 21 20 20 19 20 20 21 22 23 21 20 27 29 29 29 28 29 33 33 33 33 32 31
6 6 6 6 6 6 6 7 7 7 7 7 7 7 7 8 8 9 10 12 11 12 16 18 18 20 21 20 20 20 19 20 20 17 18 19 20 19 23 23 20 22 27 29 29 29 27 29 31 32 31 30 30 30
6 6 6 6 6 6 6 7 7 7 7 7 7 7 7 8 8 10 13 12 11 11 9 15 19 20 19 19 20 20 21 19 18 17 18 19 21 20 20 20 23 24 21 27 29 29 28 27 30 31 30 30 29 29
6 6 6 7 7 7 6 7 7 7 7 7 7 7 7 8 9 11 10 8 10 10 9 12 18 19 17 18 20 21 21 18 18 17 19 21 18 16 18 20 24 17 18 27 28 27 26 28 30 30 30 29 27 29
6 7 7 7 7 7 7 7 7 7 7 7 7 7 8 8 8 11 12 11 10 9 10 14 18 16 17 16 17 20 18 17 17 17 18 19 21 19 20 22 22 16 16 20 27 28 30 30 30 29 29 28 28 28
6 6 7 7 7 7 7 7 7 7 7 7 7 8 8 9 11 12 10 11 9 10 12 16 17 16 16 16 14 16 17 15 17 16 19 18 18 16 19 19 21 21 19 23 27 27 29 28 28 28 28 28 28 27
6 6 7 7 7 7 7 7 7 7 7 7 8 11 12 13 11 11 10 10 12 11 14 17 20 18 18 15 14 13 14 16 16 19 19 17 18 20 21 21 21 22 25 25 25 26 28 28 28 28 28 28 28 27
6 6 7 7 7 7 7 7 7 7 8 9 11 12 12 11 12 12 12 13 14 15 17 18 17 17 19 18 16 14 13 14 17 19 18 18 17 18 19 21 23 23 24 25 26 26 27 28 28 28 28 28 28 27
6 6 7 7 7 7 7 7 7 7 8 8 9 11 12 14 13 11 14 17 16 17 16 16 15 13 15 17 18 15 15 15 17 20 18 18 17 18 20 21 23 24 25 25 25 25 25 26 28 28 28 27 27 26
6 6 6 7 7 7 7 7 7 7 8 9 10 13 14 14 12 15 18 18 16 17 15 15 14 15 16 18 18 17 18 20 20 19 19 17 17 18 20 20 22 24 24 25 25 26 25 25 25 28 27 27 26 25
6 6 7 7 7 7 7 7 7 7 8 10 13 10 13 14 17 18 16 16 16 17 13 13 14 15 16 16 18 19 21 22 20 20 17 17 18 18 18 19 21 23 25 25 25 26 25 23 25 26 27 27 26 25
6 7 7 7 7 7 8 7 8 8 8 10 13 13 15 19 20 18 18 18 16 17 17 16 16 16 16 17 18 21 20 20 19 18 17 15 16 16 18 19 20 22 25 26 26 26 26 26 25 26 26 26 26 25
7 7 7 7 7 7 7 8 8 8 10 11 13 15 17 16 17 18 17 17 15 14 11 12 13 15 17 19 20 20 20 19 18 18 15 15 15 15 17 18 19 21 22 25 26 25 26 25 24 23 23 24 25 25
7 7 7 7 7 7 7 8 9 11 13 14 15 18 18 19 18 18 18 18 15 13 13 14 14 16 19 19 20 20 19 18 16 16 16 15 15 16 16 15 19 20 21 23 23 23 24 23 24 24 23 22 23 23
7 7 7 7 7 7 8 8 10 13 13 15 15 17 18 20 18 18 19 19 17 14 13 15 15 17 19 19 19 20 20 19 19 18 18 19 17 17 16 15 16 19 20 21 23 23 23 21 23 22 22 22 22 23
7 7 7 7 7 8 10 12 12 13 15 16 16 17 19 20 20 19 19 19 19 14 16 16 16 18 19 20 20 20 22 22 22 22 19 20 19 19 19 19 19 17 19 20 21 23 23 24 24 25 24 23 23 24
7 7 7 7 7 7 9 12 13 13 15 16 16 17 16 17 19 20 20 19 19 16 16 16 19 20 21 22 22 21 21 22 21 21 20 20 19 19 20 21 21 20 19 20 22 21 24 24 24 25 25 25 25 25
8 8 8 7 8 9 11 12 13 14 15 15 16 17 16 18 19 20 20 20 19 18 19 20 21 23 23 22 22 22 22 22 21 22 20 20 20 22 21 23 22 22 23 21 20 20 21 23 23 23 24 24 25 25
8 8 8 8 10 11 13 14 14 15 14 16 17 17 17 17 18 19 20 20 20 21 22 23 23 23 22 22 22 21 21 20 20 21 19 18 19 20 21 22 23 23 23 22 23 23 23 23 22 22 23 24 22 24
7 7 7 9 11 11 12 14 13 15 15 16 16 16 17 18 17 18 19 20 21 23 23 23 22 20 20 21 21 21 20 19 19 21 20 22 22 20 20 21 22 22 20 19 21 22 22 20 20 22 22 22 23 22
7 7 9 11 11 12 15 14 15 16 16 16 16 17 18 17 18 18 19 21 21 23 22 20 20 20 19 20 18 18 19 18 18 19 18 18 19 18 19 19 21 21 19 18 18 18 20 22 20 22 22 23 23 23
7 9 8 8 10 12 14 15 14 15 15 16 16 17 16 18 18 19 19 19 19 18 18 18 19 18 17 17 18 18 16 17 16 15 18 19 19 19 19 18 17 16 16 18 19 18 19 19 19 20 19 18 19 21
9 12 9 14 14 14 15 13 12 11 14 15 16 16 16 15 16 17 18 17 17 17 17 18 17 17 16 16 18 18 17 16 17 18 20 21 21 20 19 19 18 18 17 16 18 18 17 18 18 19 19 19 18 19
10 13 14 15 15 15 15 16 16 15 15 16 15 14 12 13 15 17 16 15 15 16 17 17 16 16 15 15 16 17 19 18 19 20 20 21 21 20 20 20 20 19 17 18 18 18 17 15 15 15 16 16 17 18
13 13 13 13 13 15 14 14 13 13 13 12 12 12 12 14 14 14 14 13 12 14 14 16 15 14 14 14 16 17 18 19 20 21 21 21 21 21 20 19 19 18 19 18 20 20 20 20 20 20 20 20 19 19
13 13 13 13 14 13 12 11 12 13 11 11 11 11 12 12 12 12 14 15 15 16 17 15 15 14 16 17 18 19 20 21 21 21 21 21 21 21 21 20 19 18 17 17 17 17 16 17 18 18 17 17 15 16
13 14 13 14 14 13 14 12 11 11 10 10 10 10 10 12 13 13 15 16 16 16 16 16 15 16 18 18 20 20 19 19 19 20 21 21 20 19 19 19 18 19 19 19 19 18 17 17 16 16 17 17 16 17
13 10 10 10 11 11 11 10 10 10 10 11 10 11 13 16 16 20 20 21 20 20 20 20 19 20 21 21 21 21 20 18 17 17 18 19 18 18 18 18 18 18 18 18 18 17 18 18 18 18 16 16 16 15
11 11 11 9 10 11 12 12 13 14 13 14 14 17 20 20 19 21 21 22 22 22 21 22 21 20 20 18 17 16 15 15 14 14 15 16 17 17 17 17 17 17 17 16 16 16 16 16 15 15 16 15 14 14
11 11 11 11 11 12 14 15 17 18 18 18 17 20 21 21 20 21 20 21 21 21 21 21 20 19 17 17 15 14 12 11 11 11 12 13 14 14 15 16 16 16 15 15 15 15 14 14 14 14 14 14 13 13